Location: Newark
(54.4000°N, 32.4500°E)
Time: 10:58:07
(UTC+00:00)

Envisat - Pass Details

Date: 19 January 2020
Orbit: 764 x 766 km, 98.1° (Epoch: 25 February)

Event Time Altitude Azimuth Distance (km) Brightness Sun altitude
Rises 04:50:42 0° 15° (NNE) 3,249 6.2 -9.6°
Reaches altitude 10° 04:53:01 10° 16° (NNE) 2,318 5.4 -9.2°
Maximum altitude 04:58:08 87° 105° (ESE) 775 3.1 -8.6°
Drops below altitude 10° 05:03:13 10° 196° (SSW) 2,300 5.6 -7.9°
Sets 05:05:31 0° 197° (SSW) 3,221 6.3 -7.6°
